Regional Weather Roundup
Issued by NWS Wakefield, VA

Current Version |  Previous Version |  Text Only |  Print | Product List |  Glossary On
Versions: 1 2 3 4 5 6 7 8 9 10 11 12 13 14 15 16 17 18 19 20 21 22 23 24 25 26 27
432
ASUS41 KAKQ 200211
RWRAKQ

REGIONAL WEATHER ROUNDUP
NATIONAL WEATHER SERVICE WAKEFIELD VA
1000 PM EDT SUN MAY 19 2024

Note: "fair" indicates few or no clouds below 12,000 feet with no
significant weather and/or obstructions to visibility. * = Denotes
station may not report precipitation (e.g., rain,snow,etc.),
thunder or fog.

VAZ042-051-052>054-056-200300-
NORTHERN VIRGINIA

CITY           SKY/WX    TMP DP  RH WIND       PRES   REMARKS
WASH NATIONAL  PTCLDY    69  61  75 S5        30.00R
DULLES         PTCLDY    62  59  90 CALM      30.01R
FORT BELVOIR   NOT AVBL
QUANTICO       CLEAR     65  63  93 W6        30.01R
FREDERICKSBRG* PTCLDY    62  62 100 CALM      30.00R
STAFFORD*      CLEAR     62  59  88 CALM      30.02R
WARRENTON      CLEAR     58  55  91 CALM      30.02R FOG
CULPEPER*      CLEAR     60  59  96 CALM      30.03R FOG
MANASSAS*      CLEAR     61  61 100 CALM      30.02R
LEESBURG*      CLEAR     63  61  94 CALM      30.02R
WINCHESTER     CLEAR     59  57  94 CALM      30.02R
FRONT ROYAL*   CLEAR     61  59  94 CALM      30.02R
LURAY*           N/A     61  59  94 CALM      30.03R
$$

VAZ048-049-060>072-079>083-200300-
CENTRAL AND SOUTH CENTRAL VIRGINIA

CITY           SKY/WX    TMP DP  RH WIND       PRES   REMARKS
RICHMOND       CLEAR     63  59  87 CALM      30.00R
CHESTERFIELD*  CLEAR     59  32  36 CALM      30.01R
PETERSBURG*    CLEAR     60  59  96 CALM      30.01R FOG
HANOVER        CLEAR     62  60  93 CALM      30.02R
TAPPAHANNOCK*  FOG       59  59 100 CALM      30.02R VSB 3/4
QUINTON*       CLEAR     61  61  99 CALM      30.00R
CHARLOTTSVILLE MOCLDY    69  61  75 CALM      30.02R
GORDONSVILLE*  CLEAR     61  60  97 CALM      30.02R
ORANGE*        CLEAR     59  59 100 CALM      30.04R
LOUISA*        CLEAR     58  58  99 CALM      30.02R FOG
BUMPASS*       CLEAR     60  60 100 CALM      30.02R
FARMVILLE*     CLEAR     62  62 100 CALM      30.01R
CREWE*         CLEAR     60  57  91 CALM      30.02R
FORT PICKETT*  CLEAR     59  59 100 NW5       30.02R
CHASE CITY*    CLEAR     60  60 100 CALM      30.03R
CLARKSVILLE*   CLEAR     61  61 100 CALM      30.02R
SOUTH HILL*    CLEAR     60  60  99 CALM      30.07R
LAWRENCEVILLE*   N/A     64  62  96 CALM      30.02R
EMPORIA*       MOCLDY    61  60  97 CALM      30.02R
$$

VAZ088>098-200300-
SOUTHEAST VIRGINIA

CITY           SKY/WX    TMP DP  RH WIND       PRES   REMARKS
NORFOLK        CLOUDY    60  55  83 NE6       30.00R
VIRGINIA BEACH CLEAR     58  55  90 E5        30.00R
NORFOLK NAVAL  CLOUDY    62  56  80 E10       30.02R
WEST POINT*    MOCLDY    63  61  96 CALM      30.02R
SALUDA*        CLOUDY    62  58  87 SE3       30.02R
NEWPORT NEWS   CLOUDY    60  56  86 E6        30.02R
LANGLEY AFB    NOT AVBL
FORT EUSTIS    NOT AVBL
WILLIAMSBURG*  NOT AVBL
HR EXEC AP*    CLOUDY    60  56  86 E3        30.02
FRANKLIN*      CLEAR     60  57  88 E6        30.01R
US460-WAKEFLD  MOCLDY    61  59  93 E5        30.01R
$$

VAZ020-022-025-037-045-200300-
WEST CENTRAL AND SOUTHWEST VIRGINIA

CITY           SKY/WX    TMP DP  RH WIND       PRES   REMARKS
STAUNTON*      CLOUDY    65  60  82 CALM      30.06R
WAYNESBORO*    CLOUDY    64  60  85 SE3       30.05R
HOT SPRINGS VA CLOUDY    63  60  91 S5        30.11R
LYNCHBURG      CLOUDY    67  61  81 CALM      30.03R
DANVILLE       PTCLDY    62  60  93 CALM      30.02R
SOUTH BOSTON*    N/A     60  59  96 CALM      30.03R VSB 1
MARTINSVILLE   MOCLDY    62  59  91 CALM      30.05R
ROANOKE        MOCLDY    69  59  70 SE6       30.05R
BLACKSBURG     PTCLDY    65  63  94 SE6       30.08R
DUBLIN*        PTCLDY    65  59  79 E3        30.05R
MARION*        CLOUDY    64  58  80 CALM      30.09R
HILLSVILLE*    CLEAR     60  58  91 S5        30.06R
RICHLANDS*     MOCLDY    69  58  68 CALM      30.06S
WISE*          CLEAR     64  55  72 CALM      30.08R
ABINGDON*      CLEAR     66  56  70 NE3       30.02S
$$

MDZ021>025-VAZ099-100-200300-
SOUTHERN MARYLAND AND THE DELMARVA PENINSULA

CITY           SKY/WX    TMP DP  RH WIND       PRES   REMARKS
PATUXENT RIVER MOCLDY    66  60  81 E5        30.01R
BAY BRIDGE APT CLEAR     64 N/A N/A CALM      30.00R
LEONARDTOWN    CLEAR     61  61 100 CALM      30.02R
DOVER          CLEAR     59  55  87 SE6       30.01R
GEORGETOWN     PTCLDY    56  54  93 SE6       30.03R
EASTON         CLEAR     64  59  82 SE8       30.01R
CAMBRIDGE      CLOUDY    63  63 100 SE7       30.01R
SALISBURY      CLEAR     57  54  89 CALM      30.03R
TANGIER        CLOUDY    62  58  84 E9        30.02R
OCEAN CITY     CLEAR     58  53  84 NE5       30.04R
WALLOPS ISLAND CLEAR     57  55  93 E7        30.03R
ACCOMACK*      PTCLDY   N/A N/A N/A E3        30.02R
$$

NCZ012>017-030>032-200300-
NORTH CENTRAL AND EASTERN NORTH CAROLINA

CITY           SKY/WX    TMP DP  RH WIND       PRES   REMARKS
ROANOKE RAPIDS CLOUDY    61  61 100 CALM      30.00R
RALEIGH        PTCLDY    65  60  84 NE5       30.00R
ELIZABETH CITY CLOUDY    59  54  83 MISG      30.00S
AHOSKIE*       CLEAR     60  60 100 CALM      29.99R
EDENTON*       CLOUDY    62  62 100 E6        30.01R
CURRITUCK*     CLOUDY    59  54  84 NE10      30.00S
KILL DEVIL HLS PTCLDY    56  53  92 N12G21    29.98S
MANTEO         PTCLDY    56  53  88 NE16G22   30.00S
CAPE HATTERAS  MOCLDY    59  56  89 NE9G21    29.97R
TARBORO*       CLOUDY    66  62  85 CALM      29.99R FOG
GOLDSBORO      NOT AVBL
WASHINGTON     CLEAR     62  58  88 E6        30.00R
GREENVILLE     PTCLDY    64  64 100 CALM      29.98S
NEW BERN       CLEAR     64  59  83 NE8       29.99R
WILMINGTON     PTCLDY    65  60  84 NE6       29.96R
$$

VAZ048-200300-
ELSEWHERE

CITY           SKY/WX    TMP DP  RH WIND       PRES   REMARKS
HARRISBURG PA  PTCLDY    68  61  78 E3        29.98R
BALTIMORE      PTCLDY    66  62  87 SW3       29.99R
ANNAPOLIS      PTCLDY    65  63  93 CALM      30.00R
ANDREWS AFB    NOT AVBL
PHILADELPHIA   PTCLDY    65  59  81 SE5       30.02R
HENDERSON NC   CLEAR     59  59 100 CALM      30.02R
GREENSBORO     PTCLDY    65  58  78 E5        30.01R
ROCKY MOUNT    CLOUDY    67  65  93 NE3       30.00R
$$

VAZ100-200300-
MARINE

STATION/POSITION TIME  TEMP    WIND        PRES    WAVE   SWELL
                       AIR SEA DIR/SP/G            HT/PER HT/PER
                 (UTC) (F)     (DEG/KT/KT) (MB)    (FT/S) (FT/S)
CAPE MAY NJ      0130      62   60/  5/  8 1016.6R
LEWES DE         0130      59  120/  5/  7 1016.8R
15NM E FENWICK I 0150   54 54   40/ 10/ 12 1016.7R   3/ 8   2/ 8
OCEAN-CITY-INLET 0130      60   90/  5/  6 1015.0R
44089 WALLOPS IS 0156      57                N/A     3/ 7
WACHAPREAGUE VA  0130      66   60/  5/  7 1015.6S
THOMAS POINT MD  0200   68     120/  5/  5 1016.9R
GOOSES REEF MD   0142   63 66   80/  4/  4   N/A     0
COVE POINT MD    0130          330/  1/  2 1015.9R
SOLOMONS ISLAND  0130      67  130/  2/  3 1015.5R
BISHOPS HEAD MD  0130      68  130/  8/ 10 1016.3R
PINEY POINT MD   0130          140/  3/  3   N/A
POTOMAC MD       0142   61 67  150/ 16/ 17   N/A
CAMBRIDGE MD     0130      67  130/  6/  8 1016.5R
LEWISETTA VA     0130      69  110/  4/  5 1015.9R
RAPPAHANNOCK LGT 0130           80/  9/ 11 1017.3R
STINGRAY PT      0142   61 67  100/  8/ 12   N/A     1/18
YORKTOWN VA      0130      68  100/  6/  8 1016.1R
JAMESTOWN VA     0148   61 70  110/  8/ 12   N/A
DOMINION TERM VA 0130          330/  1/  6 1016.1R
KIPTOPEKE VA     0130      65   90/  6/  9 1016.9R
CHES BAY BRIDGE  0130           70/  9/ 13 1014.9R
CAPE HENRY VA    0130           50/ 15/ 18 1016.1R
WILLOUBY STN VA  0130           90/ 11/ 13 1015.7R
S CRANEY ISL VA  0130           80/  9/ 11 1015.9R
CAPE HENRY BUOY  0156      61                N/A     3/ 8
1ST LANDING BUOY 0148   58 65   50/ 14/ 19   N/A     2/ 3
64NM E OF VA BCH 0150   53 52   10/ 10/ 14 1014.9R   5/ 5   3/ 7
DUCK PIER NC     0130           30/ 17/ 20 1015.5R
44100 DUCK FRF   0130   57 58                N/A     5/ 5
44056 DUCK FRF   0156      62                N/A     5/ 5
OREGON INLET NC  0130      66   20/ 12/ 17 1016.2R
HATTERAS NC      0130      70   20/ 18/ 23 1015.2R
DIAMOND SHLS NC  0150      64   10/ 21/ 27 1014.4R
CAPE LOOKOUT NC  0100   65      20/ 20/ 25 1014.6R
$$